RYR6RR EGSS-LEAM

Flight info

Callsign RYR6RR
Flight time 2h 26m
Altitude 35000
Route NUGBO M183 SILVA Q41 COWLY UT71 VAPID UN859 SOPIL DCT BALAN DCT LMG DCT PIMQO DCT AGN DCT ANETO N860 DOSEK
Aircraft B738/M-SDE2E3FGHIRWXY/LB1

Departure

Time 2026-05-01 10:31
Airport London Stansted Airport (EGSS)

Arrival

Time 2026-05-01 12:57
Airport Almería Airport (LEAM)
Time Latitude Longitude Altitude Speed Heading
2026-05-01 09:54 51.89021 0.25362 348 ft 0 kts 222°
2026-05-01 10:18 51.89029 0.25374 355 ft 2 kts 222°
2026-05-01 10:19 51.89041 0.25392 358 ft 2 kts 222°
2026-05-01 10:19 51.89053 0.25410 356 ft 2 kts 232°
2026-05-01 10:19 51.89061 0.25433 355 ft 2 kts 282°
2026-05-01 10:20 51.89055 0.25451 358 ft 0 kts 318°
2026-05-01 10:25 51.89098 0.25160 351 ft 18 kts 222°
2026-05-01 10:26 51.89007 0.25024 348 ft 18 kts 223°
2026-05-01 10:26 51.88920 0.24891 348 ft 17 kts 221°
2026-05-01 10:26 51.88753 0.24642 348 ft 16 kts 223°
2026-05-01 10:27 51.88568 0.24365 348 ft 20 kts 223°
2026-05-01 10:27 51.88348 0.24034 350 ft 22 kts 223°
2026-05-01 10:28 51.88233 0.23860 353 ft 23 kts 223°
2026-05-01 10:28 51.87992 0.23498 348 ft 23 kts 223°
2026-05-01 10:28 51.87872 0.23322 354 ft 23 kts 223°
2026-05-01 10:29 51.87752 0.23001 352 ft 15 kts 310°
2026-05-01 10:29 51.87819 0.22877 350 ft 14 kts 313°
2026-05-01 10:30 51.87979 0.22698 337 ft 12 kts 43°
2026-05-01 10:30 51.87993 0.22719 335 ft 2 kts 42°
2026-05-01 10:31 51.88762 0.23873 337 ft 140 kts 42°
2026-05-01 10:31 51.90521 0.26449 1230 ft 184 kts 50°
2026-05-01 10:32 51.92483 0.29345 2865 ft 204 kts 37°
2026-05-01 10:32 51.93928 0.30078 3182 ft 235 kts
2026-05-01 10:32 51.96898 0.27550 4078 ft 271 kts 296°
2026-05-01 10:33 51.97744 0.21170 4974 ft 296 kts 272°
2026-05-01 10:33 51.98185 0.14570 4948 ft 289 kts 273°
2026-05-01 10:34 51.98456 0.11407 4949 ft 285 kts 275°
2026-05-01 10:34 51.98771 0.08246 4977 ft 286 kts 276°
2026-05-01 10:34 51.98877 0.05072 4963 ft 278 kts 257°
2026-05-01 10:35 51.98067 -0.01025 4961 ft 275 kts 253°
2026-05-01 10:35 51.97667 -0.04043 4955 ft 272 kts 254°
2026-05-01 10:35 51.97276 -0.07037 4961 ft 270 kts 253°
2026-05-01 10:35 51.96885 -0.10019 5066 ft 272 kts 254°
2026-05-01 10:36 51.96094 -0.16081 6680 ft 278 kts 254°
2026-05-01 10:36 51.95687 -0.19184 7456 ft 283 kts 254°
2026-05-01 10:36 51.95277 -0.22311 8293 ft 286 kts 254°
2026-05-01 10:37 51.94861 -0.25486 9076 ft 290 kts 254°
2026-05-01 10:37 51.94006 -0.31976 10574 ft 302 kts 254°
2026-05-01 10:37 51.93547 -0.35431 10783 ft 326 kts 254°
2026-05-01 10:38 51.93051 -0.39146 10966 ft 349 kts 255°
2026-05-01 10:38 51.92527 -0.43085 11360 ft 363 kts 255°
2026-05-01 10:38 51.91994 -0.47110 12018 ft 368 kts 255°
2026-05-01 10:38 51.91453 -0.51189 12762 ft 371 kts 255°
2026-05-01 10:39 51.90907 -0.55294 13467 ft 375 kts 255°
2026-05-01 10:39 51.90351 -0.59450 14144 ft 380 kts 255°
2026-05-01 10:39 51.89472 -0.63447 14740 ft 377 kts 234°
2026-05-01 10:39 51.87708 -0.66484 15446 ft 369 kts 212°
2026-05-01 10:40 51.85480 -0.68468 16160 ft 366 kts 202°
2026-05-01 10:40 51.83145 -0.70171 16766 ft 370 kts 201°
2026-05-01 10:40 51.80780 -0.71852 17364 ft 373 kts 201°
2026-05-01 10:40 51.78396 -0.73549 17996 ft 376 kts 201°
2026-05-01 10:41 51.75993 -0.75273 18615 ft 378 kts 201°
2026-05-01 10:41 51.73616 -0.76993 19133 ft 381 kts 201°
2026-05-01 10:41 51.68746 -0.80541 20173 ft 387 kts 201°
2026-05-01 10:42 51.66282 -0.82342 20686 ft 390 kts 201°
2026-05-01 10:42 51.63800 -0.84155 21199 ft 393 kts 201°
2026-05-01 10:42 51.61296 -0.85983 21699 ft 396 kts 201°
2026-05-01 10:42 51.58748 -0.87841 22196 ft 399 kts 200°
2026-05-01 10:43 51.56207 -0.89691 22670 ft 402 kts 200°
2026-05-01 10:43 51.53679 -0.91530 23142 ft 405 kts 200°
2026-05-01 10:43 51.51102 -0.93401 23615 ft 408 kts 200°
2026-05-01 10:43 51.48473 -0.95309 24020 ft 411 kts 200°
2026-05-01 10:44 51.45854 -0.97208 24422 ft 413 kts 200°
2026-05-01 10:44 51.43263 -0.99085 24828 ft 415 kts 200°
2026-05-01 10:44 51.40633 -1.00986 25244 ft 417 kts 200°
2026-05-01 10:44 51.37972 -1.02869 25608 ft 418 kts 197°
2026-05-01 10:45 51.35196 -1.04194 25968 ft 416 kts 188°
2026-05-01 10:45 51.32304 -1.04882 26355 ft 414 kts 181°
2026-05-01 10:45 51.29428 -1.04864 26702 ft 414 kts 175°
2026-05-01 10:45 51.26598 -1.04399 27027 ft 414 kts 167°
2026-05-01 10:46 51.23807 -1.03278 27360 ft 415 kts 160°
2026-05-01 10:46 51.21128 -1.01550 27692 ft 416 kts 154°
2026-05-01 10:46 51.18500 -0.99599 28019 ft 418 kts 154°
2026-05-01 10:46 51.15862 -0.97637 28362 ft 419 kts 154°
2026-05-01 10:47 51.13208 -0.95676 28664 ft 422 kts 154°
2026-05-01 10:47 51.10538 -0.93719 28950 ft 424 kts 154°
2026-05-01 10:47 51.07845 -0.91759 29256 ft 426 kts 154°
2026-05-01 10:47 51.05145 -0.89803 29602 ft 427 kts 154°
2026-05-01 10:48 51.02452 -0.87857 30033 ft 425 kts 154°
2026-05-01 10:48 50.99768 -0.85920 30474 ft 423 kts 154°
2026-05-01 10:48 50.97092 -0.83992 30829 ft 422 kts 154°
2026-05-01 10:48 50.94421 -0.82068 31116 ft 422 kts 154°
2026-05-01 10:49 50.91751 -0.80146 31444 ft 421 kts 154°
2026-05-01 10:49 50.89086 -0.78231 31790 ft 421 kts 154°
2026-05-01 10:49 50.86420 -0.76315 32116 ft 420 kts 154°
2026-05-01 10:49 50.83863 -0.74107 32408 ft 419 kts 147°
2026-05-01 10:50 50.81421 -0.71606 32739 ft 418 kts 146°
2026-05-01 10:50 50.78986 -0.69094 33028 ft 417 kts 146°
2026-05-01 10:50 50.76557 -0.66592 33325 ft 417 kts 146°
2026-05-01 10:50 50.74125 -0.64099 33639 ft 416 kts 146°
2026-05-01 10:51 50.71689 -0.61614 33939 ft 416 kts 146°
2026-05-01 10:51 50.69262 -0.59147 34198 ft 416 kts 146°
2026-05-01 10:51 50.66825 -0.56677 34397 ft 417 kts 146°
2026-05-01 10:51 50.64384 -0.54208 34551 ft 418 kts 147°
2026-05-01 10:52 50.61933 -0.51733 34745 ft 419 kts 147°
2026-05-01 10:52 50.59483 -0.49262 34980 ft 418 kts 147°
2026-05-01 10:52 50.57027 -0.46789 35150 ft 419 kts 147°
2026-05-01 10:53 50.52086 -0.41822 35216 ft 425 kts 147°
2026-05-01 10:53 50.47060 -0.36781 35222 ft 432 kts 147°
2026-05-01 10:54 50.42005 -0.31724 35217 ft 436 kts 147°
2026-05-01 10:54 50.36878 -0.26609 35212 ft 437 kts 147°
2026-05-01 10:55 50.31737 -0.21492 35217 ft 438 kts 147°
2026-05-01 10:55 50.26592 -0.16386 35218 ft 438 kts 147°
2026-05-01 10:56 50.21446 -0.11289 35220 ft 437 kts 147°
2026-05-01 10:56 50.16311 -0.06216 35224 ft 437 kts 147°
2026-05-01 10:57 50.11143 -0.01251 35210 ft 437 kts 152°
2026-05-01 10:57 50.05439 0.01954 35234 ft 438 kts 164°
2026-05-01 10:58 49.99512 0.04199 35226 ft 438 kts 164°
2026-05-01 10:58 49.93584 0.06470 35213 ft 438 kts 164°
2026-05-01 10:59 49.87666 0.08781 35212 ft 439 kts 164°
2026-05-01 10:59 49.81750 0.11100 35222 ft 439 kts 164°
2026-05-01 11:00 49.75821 0.13417 35219 ft 439 kts 164°
2026-05-01 11:00 49.69894 0.15726 35211 ft 440 kts 164°
2026-05-01 11:01 49.63958 0.18072 35220 ft 440 kts 163°
2026-05-01 11:01 49.58032 0.20471 35212 ft 441 kts 163°
2026-05-01 11:02 49.52101 0.22866 35202 ft 441 kts 163°
2026-05-01 11:02 49.46154 0.25252 35211 ft 442 kts 163°
2026-05-01 11:03 49.40204 0.27631 35216 ft 442 kts 163°
2026-05-01 11:03 49.34243 0.30010 35222 ft 443 kts 163°
2026-05-01 11:04 49.28315 0.32398 35214 ft 444 kts 163°
2026-05-01 11:04 49.22357 0.34917 35206 ft 444 kts 163°
2026-05-01 11:05 49.16394 0.37448 35205 ft 445 kts 163°
2026-05-01 11:05 49.10425 0.39962 35219 ft 445 kts 163°
2026-05-01 11:06 49.04440 0.42469 35211 ft 446 kts 163°
2026-05-01 11:06 48.98452 0.44969 35223 ft 447 kts 163°
2026-05-01 11:07 48.89453 0.48716 35224 ft 447 kts 163°
2026-05-01 11:07 48.83454 0.51207 35223 ft 447 kts 163°
2026-05-01 11:08 48.77450 0.53683 35233 ft 447 kts 163°
2026-05-01 11:09 48.69421 0.56825 35224 ft 448 kts 164°
2026-05-01 11:09 48.63373 0.59177 35232 ft 449 kts 164°
2026-05-01 11:10 48.54296 0.62720 35237 ft 450 kts 164°
2026-05-01 11:10 48.48241 0.65118 35237 ft 450 kts 163°
2026-05-01 11:11 48.42195 0.67592 35226 ft 451 kts 163°
2026-05-01 11:11 48.36146 0.70059 35229 ft 451 kts 163°
2026-05-01 11:12 48.30082 0.72515 35238 ft 452 kts 163°
2026-05-01 11:12 48.24003 0.74966 35228 ft 452 kts 164°
2026-05-01 11:13 48.17919 0.77365 35233 ft 452 kts 164°
2026-05-01 11:13 48.11829 0.79749 35232 ft 453 kts 164°
2026-05-01 11:14 48.05737 0.82135 35231 ft 453 kts 164°
2026-05-01 11:14 47.99634 0.84522 35239 ft 453 kts 164°
2026-05-01 11:15 47.93572 0.86888 35238 ft 453 kts 164°
2026-05-01 11:15 47.87466 0.89267 35230 ft 454 kts 165°
2026-05-01 11:16 47.81354 0.91640 35222 ft 454 kts 165°
2026-05-01 11:16 47.75242 0.94005 35229 ft 454 kts 165°
2026-05-01 11:17 47.69119 0.96371 35230 ft 455 kts 165°
2026-05-01 11:17 47.62991 0.98733 35241 ft 456 kts 165°
2026-05-01 11:18 47.56849 1.01096 35229 ft 456 kts 165°
2026-05-01 11:18 47.50701 1.03456 35231 ft 457 kts 165°
2026-05-01 11:19 47.44547 1.05787 35227 ft 456 kts 167°
2026-05-01 11:19 47.38228 1.06513 35243 ft 457 kts 180°
2026-05-01 11:20 47.31871 1.06257 35232 ft 457 kts 181°
2026-05-01 11:20 47.25505 1.06038 35225 ft 458 kts 180°
2026-05-01 11:21 47.19136 1.05880 35237 ft 458 kts 180°
2026-05-01 11:21 47.12767 1.05736 35232 ft 458 kts 180°
2026-05-01 11:22 47.06395 1.05589 35231 ft 458 kts 180°
2026-05-01 11:22 47.00022 1.05422 35236 ft 458 kts 181°
2026-05-01 11:23 46.93636 1.05146 35226 ft 461 kts 184°
2026-05-01 11:23 46.87179 1.04848 35235 ft 467 kts 184°
2026-05-01 11:24 46.80659 1.04562 35238 ft 469 kts 184°
2026-05-01 11:25 46.70845 1.04146 35229 ft 471 kts 184°
2026-05-01 11:25 46.61018 1.03731 35247 ft 472 kts 185°
2026-05-01 11:26 46.51234 1.03319 35220 ft 470 kts 184°
2026-05-01 11:27 46.44713 1.03197 35229 ft 468 kts 183°
2026-05-01 11:27 46.38218 1.03161 35236 ft 466 kts 183°
2026-05-01 11:28 46.31739 1.03111 35235 ft 465 kts 183°
2026-05-01 11:28 46.25280 1.03043 35234 ft 464 kts 183°
2026-05-01 11:29 46.15616 1.02932 35244 ft 463 kts 184°
2026-05-01 11:30 46.05990 1.02311 35252 ft 461 kts 186°
2026-05-01 11:30 45.99590 1.01781 35257 ft 460 kts 186°
2026-05-01 11:31 45.93194 1.01293 35262 ft 460 kts 185°
2026-05-01 11:31 45.86800 1.00834 35262 ft 460 kts 185°
2026-05-01 11:32 45.80412 1.00384 35261 ft 459 kts 185°
2026-05-01 11:32 45.74043 0.99730 35262 ft 458 kts 188°
2026-05-01 11:33 45.67717 0.98647 35249 ft 458 kts 189°
2026-05-01 11:33 45.61442 0.97533 35248 ft 457 kts 189°
2026-05-01 11:34 45.55125 0.96465 35238 ft 457 kts 188°
2026-05-01 11:34 45.48804 0.95433 35231 ft 457 kts 188°
2026-05-01 11:35 45.42487 0.94413 35235 ft 456 kts 188°
2026-05-01 11:35 45.36183 0.93397 35236 ft 456 kts 188°
2026-05-01 11:36 45.29877 0.92382 35238 ft 456 kts 188°
2026-05-01 11:36 45.23582 0.91370 35211 ft 455 kts 188°
2026-05-01 11:37 45.17291 0.90361 35213 ft 455 kts 188°
2026-05-01 11:37 45.10997 0.89353 35211 ft 455 kts 187°
2026-05-01 11:38 45.04716 0.88351 35212 ft 454 kts 187°
2026-05-01 11:38 44.98442 0.87351 35212 ft 453 kts 187°
2026-05-01 11:39 44.92172 0.86354 35203 ft 453 kts 187°
2026-05-01 11:39 44.85912 0.85361 35206 ft 453 kts 187°
2026-05-01 11:40 44.79655 0.84371 35203 ft 452 kts 187°
2026-05-01 11:40 44.73443 0.83389 35205 ft 452 kts 187°
2026-05-01 11:41 44.67153 0.82398 35212 ft 452 kts 187°
2026-05-01 11:41 44.60948 0.81422 35205 ft 451 kts 187°
2026-05-01 11:42 44.54708 0.80443 35198 ft 451 kts 187°
2026-05-01 11:42 44.48468 0.79466 35208 ft 451 kts 187°
2026-05-01 11:43 44.42237 0.78492 35202 ft 451 kts 187°
2026-05-01 11:43 44.36003 0.77520 35206 ft 450 kts 187°
2026-05-01 11:44 44.26659 0.76067 35207 ft 450 kts 187°
2026-05-01 11:44 44.20430 0.75101 35214 ft 450 kts 187°
2026-05-01 11:45 44.14205 0.74138 35216 ft 450 kts 187°
2026-05-01 11:45 44.07972 0.73176 35204 ft 450 kts 187°
2026-05-01 11:46 44.01749 0.72217 35210 ft 450 kts 187°
2026-05-01 11:46 43.95528 0.71260 35203 ft 450 kts 187°
2026-05-01 11:47 43.89309 0.70306 35202 ft 449 kts 187°
2026-05-01 11:47 43.83095 0.69354 35195 ft 450 kts 187°
2026-05-01 11:48 43.76876 0.68404 35195 ft 450 kts 187°
2026-05-01 11:48 43.70655 0.67455 35196 ft 450 kts 187°
2026-05-01 11:49 43.64438 0.66509 35195 ft 450 kts 187°
2026-05-01 11:49 43.58220 0.65565 35196 ft 450 kts 187°
2026-05-01 11:50 43.51999 0.64622 35195 ft 450 kts 187°
2026-05-01 11:50 43.45819 0.63687 35195 ft 450 kts 187°
2026-05-01 11:51 43.39561 0.62743 35198 ft 449 kts 187°
2026-05-01 11:51 43.33386 0.61813 35197 ft 449 kts 187°
2026-05-01 11:52 43.27168 0.60878 35196 ft 449 kts 187°
2026-05-01 11:52 43.20949 0.59946 35199 ft 449 kts 187°
2026-05-01 11:53 43.14733 0.59015 35198 ft 449 kts 187°
2026-05-01 11:53 43.08521 0.58087 35201 ft 449 kts 187°
2026-05-01 11:54 43.02303 0.57160 35206 ft 449 kts 187°
2026-05-01 11:54 42.96084 0.56235 35207 ft 450 kts 187°
2026-05-01 11:55 42.89861 0.55311 35218 ft 450 kts 187°
2026-05-01 11:55 42.83640 0.54390 35228 ft 450 kts 187°
2026-05-01 11:56 42.77406 0.53468 35231 ft 451 kts 187°
2026-05-01 11:56 42.71171 0.52548 35223 ft 451 kts 187°
2026-05-01 11:57 42.65987 0.51784 35246 ft 451 kts 187°
2026-05-01 11:57 42.59750 0.50867 35233 ft 451 kts 187°
2026-05-01 11:58 42.53517 0.49952 35243 ft 451 kts 187°
2026-05-01 11:59 42.44151 0.48581 35246 ft 451 kts 187°
2026-05-01 11:59 42.37909 0.47669 35230 ft 452 kts 187°
2026-05-01 12:00 42.28622 0.45531 35236 ft 451 kts 192°
2026-05-01 12:01 42.19378 0.43083 35220 ft 452 kts 192°
2026-05-01 12:01 42.13194 0.41507 35220 ft 452 kts 192°
2026-05-01 12:02 42.07014 0.39946 35204 ft 452 kts 192°
2026-05-01 12:02 42.00829 0.38383 35216 ft 452 kts 192°
2026-05-01 12:03 41.94638 0.36823 35203 ft 453 kts 191°
2026-05-01 12:03 41.88443 0.35266 35210 ft 453 kts 191°
2026-05-01 12:04 41.82251 0.33712 35205 ft 453 kts 191°
2026-05-01 12:04 41.76046 0.32157 35205 ft 454 kts 191°
2026-05-01 12:05 41.69841 0.30607 35202 ft 454 kts 191°
2026-05-01 12:05 41.60568 0.28295 35199 ft 454 kts 191°
2026-05-01 12:06 41.54354 0.26749 35199 ft 454 kts 191°
2026-05-01 12:06 41.48146 0.25207 35196 ft 454 kts 191°
2026-05-01 12:07 41.41944 0.23670 35193 ft 453 kts 191°
2026-05-01 12:07 41.35747 0.22136 35188 ft 453 kts 191°
2026-05-01 12:08 41.29557 0.20608 35201 ft 452 kts 191°
2026-05-01 12:08 41.23375 0.19085 35200 ft 452 kts 192°
2026-05-01 12:09 41.17195 0.17566 35196 ft 451 kts 192°
2026-05-01 12:09 41.11064 0.15891 35200 ft 449 kts 197°
2026-05-01 12:10 41.02117 0.12195 35203 ft 449 kts 198°
2026-05-01 12:11 40.93166 0.08538 35201 ft 449 kts 198°
2026-05-01 12:11 40.87187 0.06140 35206 ft 449 kts 198°
2026-05-01 12:12 40.81210 0.03746 35211 ft 449 kts 198°
2026-05-01 12:12 40.75221 0.01350 35212 ft 450 kts 198°
2026-05-01 12:13 40.69228 -0.01043 35217 ft 450 kts 198°
2026-05-01 12:13 40.63230 -0.03435 35219 ft 451 kts 198°
2026-05-01 12:14 40.57223 -0.05826 35210 ft 452 kts 197°
2026-05-01 12:14 40.51246 -0.08198 35212 ft 452 kts 197°
2026-05-01 12:15 40.45219 -0.10587 35198 ft 453 kts 197°
2026-05-01 12:15 40.39189 -0.12973 35195 ft 453 kts 198°
2026-05-01 12:16 40.33155 -0.15357 35191 ft 453 kts 198°
2026-05-01 12:16 40.27117 -0.17739 35196 ft 454 kts 198°
2026-05-01 12:17 40.21063 -0.20120 35187 ft 454 kts 198°
2026-05-01 12:17 40.15004 -0.22498 35200 ft 454 kts 198°
2026-05-01 12:18 40.08947 -0.24873 35211 ft 455 kts 198°
2026-05-01 12:18 40.02872 -0.27252 35213 ft 456 kts 198°
2026-05-01 12:19 39.96794 -0.29625 35227 ft 457 kts 198°
2026-05-01 12:19 39.90699 -0.31999 35228 ft 457 kts 198°
2026-05-01 12:20 39.84597 -0.34371 35231 ft 458 kts 198°
2026-05-01 12:20 39.78725 -0.36651 35230 ft 459 kts 199°
2026-05-01 12:21 39.72598 -0.39026 35237 ft 460 kts 199°
2026-05-01 12:21 39.66445 -0.41408 35246 ft 462 kts 199°
2026-05-01 12:22 39.60282 -0.43789 35232 ft 463 kts 199°
2026-05-01 12:22 39.54102 -0.46173 35238 ft 464 kts 199°
2026-05-01 12:23 39.47959 -0.48696 35229 ft 462 kts 206°
2026-05-01 12:23 39.42296 -0.52526 35237 ft 459 kts 212°
2026-05-01 12:24 39.36704 -0.56525 35238 ft 460 kts 212°
2026-05-01 12:24 39.31109 -0.60458 35232 ft 461 kts 212°
2026-05-01 12:25 39.22632 -0.66337 35225 ft 461 kts 212°
2026-05-01 12:26 39.16971 -0.70252 35222 ft 462 kts 212°
2026-05-01 12:26 39.08480 -0.76115 35235 ft 462 kts 212°
2026-05-01 12:27 38.99966 -0.81973 35217 ft 462 kts 212°
2026-05-01 12:28 38.91454 -0.87814 35225 ft 462 kts 212°
2026-05-01 12:29 38.82950 -0.93637 35216 ft 462 kts 211°
2026-05-01 12:29 38.74447 -0.99444 35212 ft 461 kts 211°
2026-05-01 12:30 38.68830 -1.03265 35187 ft 448 kts 211°
2026-05-01 12:30 38.66095 -1.05121 35199 ft 444 kts 211°
2026-05-01 12:31 38.60663 -1.08811 35196 ft 441 kts 211°
2026-05-01 12:31 38.57957 -1.10648 34946 ft 443 kts 211°
2026-05-01 12:31 38.55195 -1.12525 34048 ft 451 kts 211°
2026-05-01 12:31 38.52420 -1.14407 33346 ft 450 kts 211°
2026-05-01 12:32 38.49665 -1.16270 32852 ft 446 kts 211°
2026-05-01 12:32 38.44235 -1.19936 31891 ft 437 kts 211°
2026-05-01 12:32 38.41560 -1.21740 31420 ft 433 kts 211°
2026-05-01 12:33 38.38904 -1.23530 30965 ft 429 kts 211°
2026-05-01 12:33 38.36274 -1.25303 30524 ft 426 kts 211°
2026-05-01 12:33 38.33664 -1.27061 30066 ft 423 kts 211°
2026-05-01 12:33 38.31109 -1.28780 29523 ft 419 kts 211°
2026-05-01 12:34 38.28546 -1.30503 29073 ft 415 kts 211°
2026-05-01 12:34 38.26009 -1.32207 28603 ft 411 kts 211°
2026-05-01 12:34 38.23495 -1.33895 28143 ft 406 kts 211°
2026-05-01 12:34 38.21005 -1.35565 27676 ft 403 kts 211°
2026-05-01 12:35 38.18540 -1.37218 27224 ft 399 kts 211°
2026-05-01 12:35 38.16090 -1.38859 26779 ft 396 kts 210°
2026-05-01 12:35 38.13666 -1.40481 26333 ft 393 kts 210°
2026-05-01 12:35 38.12845 -1.41030 26186 ft 392 kts 210°
2026-05-01 12:36 38.08865 -1.43691 25459 ft 387 kts 210°
2026-05-01 12:36 38.06491 -1.45276 25037 ft 385 kts 210°
2026-05-01 12:36 38.04126 -1.46855 24612 ft 383 kts 210°
2026-05-01 12:36 38.01775 -1.48422 24174 ft 381 kts 210°
2026-05-01 12:37 37.99435 -1.49982 23731 ft 380 kts 210°
2026-05-01 12:37 37.97096 -1.51540 23228 ft 378 kts 210°
2026-05-01 12:37 37.94772 -1.53086 22768 ft 376 kts 210°
2026-05-01 12:37 37.92466 -1.54619 22337 ft 373 kts 210°
2026-05-01 12:38 37.90175 -1.56139 21905 ft 370 kts 210°
2026-05-01 12:38 37.87896 -1.57631 21496 ft 367 kts 210°
2026-05-01 12:38 37.85633 -1.59103 21077 ft 365 kts 209°
2026-05-01 12:38 37.83382 -1.60563 20675 ft 362 kts 210°
2026-05-01 12:39 37.81146 -1.62013 20263 ft 360 kts 210°
2026-05-01 12:39 37.78929 -1.63451 19862 ft 358 kts 210°
2026-05-01 12:39 37.76715 -1.64887 19459 ft 357 kts 210°
2026-05-01 12:39 37.74510 -1.66318 19064 ft 356 kts 210°
2026-05-01 12:40 37.72309 -1.67747 18645 ft 356 kts 210°
2026-05-01 12:40 37.70110 -1.69173 18214 ft 355 kts 210°
2026-05-01 12:40 37.67916 -1.70591 17790 ft 353 kts 210°
2026-05-01 12:40 37.65735 -1.72002 17360 ft 351 kts 210°
2026-05-01 12:41 37.63568 -1.73404 16947 ft 349 kts 210°
2026-05-01 12:41 37.61416 -1.74796 16543 ft 347 kts 209°
2026-05-01 12:41 37.59273 -1.76181 16137 ft 345 kts 209°
2026-05-01 12:41 37.57138 -1.77560 15746 ft 344 kts 209°
2026-05-01 12:42 37.55017 -1.78930 15358 ft 342 kts 209°
2026-05-01 12:42 37.52911 -1.80288 15247 ft 339 kts 209°
2026-05-01 12:42 37.50830 -1.81628 15191 ft 331 kts 209°
2026-05-01 12:42 37.48818 -1.82922 15183 ft 318 kts 209°
2026-05-01 12:43 37.46886 -1.84164 15180 ft 305 kts 209°
2026-05-01 12:43 37.45035 -1.85353 15181 ft 293 kts 209°
2026-05-01 12:43 37.43260 -1.86494 15179 ft 280 kts 210°
2026-05-01 12:43 37.41566 -1.87582 15172 ft 268 kts 210°
2026-05-01 12:44 37.39922 -1.88639 14991 ft 264 kts 210°
2026-05-01 12:44 37.38842 -1.89334 14807 ft 263 kts 210°
2026-05-01 12:44 37.35534 -1.91462 14044 ft 272 kts 210°
2026-05-01 12:45 37.31994 -1.93738 12417 ft 309 kts 209°
2026-05-01 12:45 37.30022 -1.95002 11620 ft 323 kts 209°
2026-05-01 12:45 37.27383 -1.96686 11319 ft 315 kts 208°
2026-05-01 12:46 37.26083 -1.97516 11261 ft 307 kts 209°
2026-05-01 12:46 37.24211 -1.98713 11172 ft 297 kts 209°
2026-05-01 12:46 37.22413 -1.99902 11064 ft 287 kts 210°
2026-05-01 12:46 37.20671 -2.01072 10874 ft 281 kts 210°
2026-05-01 12:47 37.18955 -2.02227 10617 ft 280 kts 210°
2026-05-01 12:47 37.17245 -2.03375 10360 ft 279 kts 210°
2026-05-01 12:47 37.15535 -2.04522 10085 ft 278 kts 210°
2026-05-01 12:47 37.13835 -2.05658 9786 ft 276 kts 210°
2026-05-01 12:48 37.12143 -2.06788 9500 ft 275 kts 210°
2026-05-01 12:48 37.10459 -2.07912 9220 ft 274 kts 210°
2026-05-01 12:48 37.08777 -2.09032 8981 ft 273 kts 210°
2026-05-01 12:48 37.07101 -2.10149 8691 ft 272 kts 210°
2026-05-01 12:49 37.05435 -2.11259 8420 ft 271 kts 210°
2026-05-01 12:49 37.03745 -2.12377 7857 ft 283 kts 206°
2026-05-01 12:49 37.01794 -2.12836 7329 ft 293 kts 173°
2026-05-01 12:49 36.99934 -2.11869 7001 ft 293 kts 140°
2026-05-01 12:50 36.98601 -2.09969 6725 ft 290 kts 129°
2026-05-01 12:50 36.97277 -2.08076 6367 ft 290 kts 135°
2026-05-01 12:50 36.95819 -2.06395 6059 ft 287 kts 141°
2026-05-01 12:50 36.94210 -2.04935 5767 ft 285 kts 148°
2026-05-01 12:51 36.92468 -2.03721 5212 ft 292 kts 158°
2026-05-01 12:51 36.90456 -2.03439 4669 ft 298 kts 191°
2026-05-01 12:51 36.87868 -2.06664 4663 ft 252 kts 261°
2026-05-01 12:52 36.88070 -2.08725 4518 ft 231 kts 291°
2026-05-01 12:52 36.89044 -2.12174 4245 ft 187 kts 284°
2026-05-01 12:52 36.89195 -2.13693 4054 ft 167 kts 271°
2026-05-01 12:53 36.88971 -2.16572 3182 ft 166 kts 259°
2026-05-01 12:53 36.88736 -2.17967 2899 ft 160 kts 256°
2026-05-01 12:53 36.88461 -2.19326 2692 ft 165 kts 253°
2026-05-01 12:54 36.88183 -2.20727 2460 ft 166 kts 255°
2026-05-01 12:54 36.87622 -2.23522 2030 ft 166 kts 257°
2026-05-01 12:54 36.87346 -2.24915 1781 ft 164 kts 253°
2026-05-01 12:55 36.86692 -2.27632 1355 ft 164 kts 251°
2026-05-01 12:55 36.86359 -2.28984 1130 ft 162 kts 251°
2026-05-01 12:55 36.86043 -2.30281 929 ft 150 kts 249°
2026-05-01 12:56 36.85735 -2.31535 692 ft 154 kts 251°
2026-05-01 12:56 36.85436 -2.32809 488 ft 153 kts 251°
2026-05-01 12:56 36.85129 -2.34061 298 ft 151 kts 250°
2026-05-01 12:56 36.84812 -2.35309 109 ft 150 kts 250°
2026-05-01 12:57 36.84526 -2.36464 61 ft 120 kts 253°
2026-05-01 12:57 36.84216 -2.37737 45 ft 23 kts 256°
2026-05-01 12:57 36.84196 -2.37933 44 ft 22 kts 269°
2026-05-01 12:58 36.84212 -2.38096 41 ft 18 kts 279°
2026-05-01 12:58 36.84217 -2.38124 41 ft 1 kts 281°
2026-05-01 12:58 36.84219 -2.38143 40 ft 4 kts 280°
2026-05-01 12:59 36.84280 -2.38179 39 ft 6 kts 64°
2026-05-01 12:59 36.84297 -2.38103 39 ft 12 kts 74°
2026-05-01 12:59 36.84363 -2.37838 45 ft 9 kts 72°
2026-05-01 13:00 36.84399 -2.37697 46 ft 9 kts 72°
2026-05-01 13:00 36.84420 -2.37610 49 ft 12 kts 73°
2026-05-01 13:01 36.84501 -2.37380 52 ft 11 kts 11°
2026-05-01 13:01 36.84560 -2.37342 52 ft 10 kts 62°
2026-05-01 13:01 36.84603 -2.37268 50 ft 3 kts 356°
2026-05-01 13:02 36.84646 -2.37283 53 ft 8 kts 343°
2026-05-01 13:07 36.84651 -2.37253 54 ft 0 kts 118°